Regional Weather Roundup
Issued by NWS Little Rock, AR

Home | Current Version | Previous Version | Text Only | Print | Product List | Glossary On
Versions: 1 2 3 4 5 6 7 8 9 10 11 12 13 14 15 16 17 18 19 20 21 22 23 24 25 26 27 28 29 30 31 32 33 34 35 36 37 38 39 40 41 42 43 44 45 46 47 48 49 50
000
ASUS44 KLZK 021805
RWRLZK

WEATHER ROUNDUP FOR ARKANSAS
NATIONAL WEATHER SERVICE LITTLE ROCK AR
100 PM CDT TUE JUN 02 2015

NOTE: "FAIR" INDICATES FEW OR NO CLOUDS BELOW 12,000 FEET WITH NO
SIGNIFICANT WEATHER AND/OR OBSTRUCTIONS TO VISIBILITY.

ARZ001-003-010-029-021900-
NORTHWEST ARKANSAS

CITY           SKY/WX    TMP DP  RH WIND       PRES   REMARKS
FAYETTEVILLE   CLOUDY    75  65  70 VRB3      30.06F
6HR MIN TEMP:  58; 6HR MAX TEMP:  75;

FORT SMITH     PTSUNNY   79  65  62 VRB6      30.03F
6HR MIN TEMP:  66; 6HR MAX TEMP:  80;

HARRISON       CLOUDY    71  63  75 VRB7      30.09F
6HR MIN TEMP:  59; 6HR MAX TEMP:  71;

BENTONVILLE    PTSUNNY   77  63  61 CALM      30.07S
6HR MIN TEMP:  61; 6HR MAX TEMP:  77;

ROGERS         CLOUDY    77  64  65 VRB5      30.07F
6HR MIN TEMP:  62; 6HR MAX TEMP:  77;

SILOAM SPGS    PTSUNNY   79  63  57 SW5       30.06F
6HR MIN TEMP:  61; 6HR MAX TEMP:  79;

HIGHFILL       MOSUNNY   78  66  66 CALM      30.05F
6HR MIN TEMP:  61; 6HR MAX TEMP:  78;

SPRINGDALE     PTSUNNY   75  64  69 SW9       30.08F
$$

ARZ004-005-016-021900-
NORTH CENTRAL ARKANSAS

CITY           SKY/WX    TMP DP  RH WIND       PRES   REMARKS
BATESVILLE     CLOUDY    70  61  73 E6        30.09S
6HR MIN TEMP:  61; 6HR MAX TEMP:  72;

FLIPPIN        MOSUNNY   70  61  73 SE3       30.08F
6HR MIN TEMP:  61; 6HR MAX TEMP:  70;

MTN HOME       PTSUNNY   70  60  70 VRB3      30.09F
6HR MIN TEMP:  60; 6HR MAX TEMP:  70;

$$

ARZ040-041-021900-
WEST CENTRAL ARKANSAS

CITY           SKY/WX    TMP DP  RH WIND       PRES   REMARKS
MENA           PTSUNNY   79  64  61 CALM      30.08S
MOUNT IDA      PTSUNNY   74  64  71 CALM      30.05F
6HR MIN TEMP:  62; 6HR MAX TEMP:  76;

$$

ARZ009-017-025-026-028-021900-
NORTHEAST ARKANSAS

CITY           SKY/WX    TMP DP  RH WIND       PRES   REMARKS
CORNING          N/A     66  57  72 N7        30.11S
JONESBORO      CLOUDY    70  59  68 NE8       30.09S
6HR MIN TEMP:  61; 6HR MAX TEMP:  70;

NEWPORT        CLOUDY    70  59  68 NE5       30.10F
6HR MIN TEMP:  61; 6HR MAX TEMP:  71;

WALNUT RIDGE   PTSUNNY   70  57  64 NE10      30.09F
6HR MIN TEMP:  61; 6HR MAX TEMP:  70;

BLYTHEVILLE    CLOUDY    69  59  70 N7        30.09F
6HR MIN TEMP:  62; 6HR MAX TEMP:  71;

NW BLYTHEVILLE CLOUDY    68  59  73 N8        30.09F
$$

ARZ022-023-033-042-044-021900-
CENTRAL ARKANSAS

CITY           SKY/WX    TMP DP  RH WIND       PRES   REMARKS
LITTLE ROCK    CLOUDY    74  60  61 E5        30.08F
6HR MIN TEMP:  65; 6HR MAX TEMP:  75;

N LITTLE ROCK  CLOUDY    73  65  77 E5        30.08F
6HR MIN TEMP:  63; 6HR MAX TEMP:  74;

JACKSONVILLE   CLOUDY    73  63  72 SE5       30.08S
6HR MIN TEMP:  63; 6HR MAX TEMP:  74; 6HR PCP: TRACE;

SEARCY         CLOUDY    71  62  73 E6        30.10S
6HR MIN TEMP:  62; 6HR MAX TEMP:  73;

HOT SPRINGS    CLOUDY    74  63  68 CALM      30.08S
6HR MIN TEMP:  65; 6HR MAX TEMP:  74;

RUSSELLVILLE   PTSUNNY   74  63  68 CALM      30.07F
6HR MIN TEMP:  65; 6HR MAX TEMP:  74;

CLINTON        PTSUNNY   73  63  68 CALM      30.10S
$$

ARZ036-021900-
EAST ARKANSAS

CITY           SKY/WX    TMP DP  RH WIND       PRES   REMARKS
WEST MEMPHIS   CLOUDY    72  60  66 N9        30.07S
6HR MIN TEMP:  62; 6HR MAX TEMP:  73;

$$

ARZ050-053-066-070-073-021900-
SOUTHWEST ARKANSAS

CITY           SKY/WX    TMP DP  RH WIND       PRES   REMARKS
ARKADELPHIA    FAIR      77  67  71 CALM      30.08S
6HR MIN TEMP:  66; 6HR MAX TEMP:  77;

CAMDEN         MOSUNNY   82  61  47 CALM      30.06F
TEXARKANA      MOSUNNY   79  66  64 E5        30.05F
6HR MIN TEMP:  65; 6HR MAX TEMP:  81;

EL DORADO      MOSUNNY   80  63  55 VRB3      30.06F
6HR MIN TEMP:  63; 6HR MAX TEMP:  80;

DE QUEEN       CLOUDY    78  67  68 CALM      30.05S
6HR MIN TEMP:  63; 6HR MAX TEMP:  78;

$$

ARZ056-057-069-021900-
SOUTHEAST ARKANSAS

CITY           SKY/WX    TMP DP  RH WIND       PRES   REMARKS
PINE BLUFF     MOSUNNY   76  64  66 E6        30.08S
6HR MIN TEMP:  63; 6HR MAX TEMP:  76;

STUTTGART      CLOUDY    72  61  68 MISG      30.09S
6HR MIN TEMP:  63; 6HR MAX TEMP:  73;

MONTICELLO     PTSUNNY   78  63  59 VRB6      30.07F
6HR MIN TEMP:  63; 6HR MAX TEMP:  78;


$$





USA.gov is the U.S. government's official web portal to all federal, state and local government web resources and services.